Naples, Italy

1:48 AM CET on December 05, 2016 (GMT +0100)
Capodichino Mil

Weather History for LIRN - April, 2013

Change the Weather History Date:

Wednesday, April 17, 2013

  Actual Average Record
Temperature  
Mean Temperature 63 °F -  
Max Temperature 75 °F 63 °F 79 °F (2016)
Min Temperature 51 °F 48 °F 42 °F (1997)
Degree Days  
Heating Degree Days 2    
Growing Degree Days 13 (Base 50)    
Moisture  
Dew Point 39 °F    
Average Humidity 40    
Maximum Humidity 67    
Minimum Humidity 20    
Precipitation  
Precipitation 0.00 in - - ()
Sea Level Pressure  
Sea Level Pressure 30.16 in    
Wind  
Wind Speed 5 mph ()    
Max Wind Speed 14 mph    
Max Gust Speed -    
Visibility 6.2 miles    
Events      
Averages and records for this station are not official NWS values.
T = Trace of Precipitation, MM = Missing Value Source: Averaged Metar Reports

Daily Weather History Graph

Daily Weather History Graph

Search for Another Location

Airport or City:

Trip Planner

Search our weather history database for the weather conditions in past years. The results will help you decide how hot, cold, wet, or windy it might be!

Date:

Astronomy

Apr. 17, 2013 Rise Set
Actual Time 6:20 AM CEST 7:44 PM CEST
Civil Twilight 5:52 AM CEST 8:13 PM CEST
Nautical Twilight 5:17 AM CEST 8:47 PM CEST
Astronomical Twilight 4:41 AM CEST 9:24 PM CEST
Moon 11:17 AM CEST (4/17) 1:11 AM CEST (4/17)
Length of Visible Light 14h 20m
Length of Day
13h 23m
Waxing Crescent, 40% of the Moon is Illuminated
Apr 17
Waxing Crescent
Apr 18
First Quarter
Apr 25
Full
May 2
Last Quarter
May 10
New

Hourly Weather History & Observations

Time (CEST) Temp. Dew Point Humidity Pressure Visibility Wind Dir Wind Speed Gust Speed Precip Events Conditions
12:20 AM 62.6 °F 50.0 °F 63% 30.15 in - NNE 5.8 mph - N/A   Clear
12:50 AM 60.8 °F 42.8 °F 52% 30.15 in - NE 5.8 mph - N/A   Clear
1:20 AM 60.8 °F 42.8 °F 52% 30.15 in - NE 3.5 mph - N/A   Clear
1:50 AM 59.0 °F 46.4 °F 63% 30.15 in - NE 4.6 mph - N/A   Clear
2:20 AM 59.0 °F 48.2 °F 67% 30.15 in - NE 3.5 mph - N/A   Clear
2:50 AM 60.8 °F 44.6 °F 55% 30.15 in 6.2 mi NE 3.5 mph - N/A   Scattered Clouds
3:20 AM 60.8 °F 42.8 °F 52% 30.15 in 6.2 mi Calm Calm - N/A   Scattered Clouds
3:50 AM 57.2 °F 41.0 °F 55% 30.15 in 6.2 mi Variable 2.3 mph - N/A   Partly Cloudy
4:20 AM 59.0 °F 35.6 °F 42% 30.15 in 6.2 mi NNE 4.6 mph - N/A   Partly Cloudy
4:50 AM 57.2 °F 35.6 °F 44% 30.15 in 6.2 mi North 3.5 mph - N/A   Partly Cloudy
5:20 AM 55.4 °F 37.4 °F 51% 30.15 in - NW 4.6 mph - N/A   Clear
5:50 AM 55.4 °F 37.4 °F 51% 30.15 in - WNW 1.2 mph - N/A   Clear
6:20 AM 51.8 °F 37.4 °F 58% 30.18 in - West 2.3 mph - N/A   Clear
6:50 AM 51.8 °F 39.2 °F 62% 30.18 in - NW 4.6 mph - N/A   Clear
7:20 AM 59.0 °F 41.0 °F 51% 30.18 in - NW 3.5 mph - N/A   Clear
7:50 AM 60.8 °F 37.4 °F 42% 30.18 in - NNW 3.5 mph - N/A   Clear
8:20 AM 64.4 °F 37.4 °F 37% 30.18 in - Variable 2.3 mph - N/A   Clear
8:50 AM 66.2 °F 35.6 °F 32% 30.18 in - NNE 3.5 mph - N/A   Clear
9:20 AM 66.2 °F 39.2 °F 37% 30.18 in - North 3.5 mph - N/A   Clear
9:50 AM 68.0 °F 30.2 °F 24% 30.18 in - NNW 3.5 mph - N/A   Clear
10:20 AM 71.6 °F 30.2 °F 22% 30.21 in - Variable 2.3 mph - N/A   Clear
10:50 AM 71.6 °F 28.4 °F 20% 30.18 in - Variable 2.3 mph - N/A   Clear
11:20 AM 71.6 °F 39.2 °F 31% 30.18 in - South 5.8 mph - N/A   Clear
11:50 AM 71.6 °F 35.6 °F 27% 30.18 in - South 6.9 mph - N/A   Clear
12:20 PM 73.4 °F 37.4 °F 27% 30.18 in - South 8.1 mph - N/A   Clear
12:50 PM 71.6 °F 41.0 °F 33% 30.18 in - SSW 9.2 mph - N/A   Clear
1:20 PM 75.2 °F 44.6 °F 34% 30.18 in - South 6.9 mph - N/A   Clear
1:50 PM 73.4 °F 37.4 °F 27% 30.18 in - SW 8.1 mph - N/A   Clear
2:20 PM 75.2 °F 35.6 °F 24% 30.15 in - Variable 5.8 mph - N/A   Clear
2:50 PM 73.4 °F 32.0 °F 22% 30.15 in - West 13.8 mph - N/A   Clear
3:20 PM 73.4 °F 32.0 °F 22% 30.15 in - West 12.7 mph - N/A   Clear
3:50 PM 73.4 °F 33.8 °F 23% 30.15 in - West 12.7 mph - N/A   Clear
4:20 PM 73.4 °F 35.6 °F 25% 30.15 in - West 11.5 mph - N/A   Clear
4:50 PM 73.4 °F 33.8 °F 23% 30.15 in - West 12.7 mph - N/A   Clear
5:20 PM 71.6 °F 30.2 °F 22% 30.15 in - WNW 10.4 mph - N/A   Clear
5:50 PM 71.6 °F 37.4 °F 29% 30.15 in - West 8.1 mph - N/A   Clear
6:20 PM 69.8 °F 37.4 °F 31% 30.15 in - WNW 9.2 mph - N/A   Clear
6:50 PM 69.8 °F 33.8 °F 27% 30.15 in - WNW 8.1 mph - N/A   Clear
7:50 PM 66.2 °F 42.8 °F 43% 30.15 in - NW 5.8 mph - N/A   Clear
8:20 PM 66.2 °F 41.0 °F 40% 30.15 in - NNW 4.6 mph - N/A   Clear
8:50 PM 64.4 °F 42.8 °F 45% 30.18 in - NE 4.6 mph - N/A   Clear
9:20 PM 64.4 °F 44.6 °F 49% 30.18 in - NNW 5.8 mph - N/A   Clear
9:50 PM 62.6 °F 44.6 °F 52% 30.18 in - ENE 3.5 mph - N/A   Clear
10:50 PM 62.6 °F 46.4 °F 55% 30.18 in - Calm Calm - N/A   Clear
11:20 PM 60.8 °F 46.4 °F 59% 30.18 in - ENE 3.5 mph - N/A   Clear
11:50 PM 59.0 °F 44.6 °F 59% 30.18 in - North 3.5 mph - N/A   Clear